Regional Weather Roundup
Issued by NWS

Home | Current Version | Previous Version | Text Only | Print | Product List | Glossary On
Versions: 1 2 3 4 5 6 7 8 9 10 11 12 13 14 15 16 17 18 19 20 21 22 23 24 25 26 27 28 29 30 31 32 33 34 35 36 37 38 39 40 41 42 43 44 45 46 47 48 49 50
000
ASUS42 KTBW 290417
RWRFL
FLORIDA REGIONAL WEATHER ROUNDUP
NATIONAL WEATHER SERVICE TAMPA BAY RUSKIN FL
1200 AM EDT FRI MAY 29 2015

NOTE: "FAIR" INDICATES FEW OR NO CLOUDS BELOW 12,000 FEET WITH NO
SIGNIFICANT WEATHER AND/OR OBSTRUCTIONS TO VISIBILITY.


FLZ001>010-012>015-112-114-115-290500-
PANHANDLE FLORIDA

CITY           SKY/WX    TMP DP  RH WIND       PRES   REMARKS
PENSACOLA      PTCLDY    73  71  93 E3        30.13S
PENSACOLA NAS  PTCLDY    77  72  84 SE7       30.12S
MILTON NAS     PTCLDY    70  69  97 E5        30.14
CRESTVIEW      PTCLDY    70  69  97 CALM      30.16S
DUKE FIELD     MOCLDY    70  69  96 NE1       30.13S
VALPARAISO     MOCLDY    73  71  93 NE2       30.14S
MARY ESTHER    CLOUDY    74  70  88 NE2       30.12S
TRI COUNTY     FAIR      70  69  97 CALM      30.15F
PANAMA CITY    FAIR      72  71  97 NE5       30.13F
TYNDALL AFB    MOCLDY    72  71  97 NE5       30.13F
APALACHICOLA   CLEAR     75  70  84 NE5       30.13F

STATION/POSITION SKY/WX   TEMP    WIND        PRES    WAVE   SWELL
                          AIR SEA DIR/SP/G            HT/PER HT/PER
                          (F)     (DEG/KT/KT) (MB)    (FT/S) (FT/S)
30.1N   87.6W              78 80  110/ 12/ 14 1019.0S   3/ 8   2/ 8
29.2N   88.2W              78 80  100/ 10/ 10 1019.7R   2/ 7   2/ 7
28.8N   86.0W              79 81   80/  6/  8 1020.2R   3/ 6   3/ 6
PANAMA CITY BEAC           74 81   30/  4/  7 1020.4R
CAPE SAN BLAS    NOT AVBL
TOWER C                    79     360/  9/  9 1019.8F
28.5N   84.5W              80 81  360/ 10/ 12 1019.6R   2/ 5   2/ 5

$$
FLZ011-016>038-118-127-128-134-139-239-290500-
NORTH FLORIDA

CITY           SKY/WX    TMP DP  RH WIND       PRES   REMARKS
MARIANNA       PTCLDY    71  71 100 CALM      30.15F
TALLAHASSEE    CLEAR     76  71  85 N3        30.15S
PERRY          CLEAR     75  63  65 E6        30.16S
CROSS CITY       N/A     72  64  76 NE3       30.15R
LAKE CITY      FAIR      68  64  88 CALM      30.17F
GAINESVILLE    CLEAR     67  63  87 E3        30.16S
MAYPORT NAS    PTCLDY    77  65  66 E7        30.17S
JACKSONVILLE   PTCLDY    68  64  87 CALM      30.17S
JAX NAS        PTCLDY    80  65  59 E5        30.18R
JAX CRAIG      CLOUDY    73  66  78 CALM      30.17S
JAX CECIL      PTCLDY    66  64  94 CALM      30.17F
FERNANDINA BEA FAIR      79  63  57 E5        30.16S
ST AUGUSTINE   MOCLDY    76  66  71 E8        30.17S

STATION/POSITION SKY/WX   TEMP    WIND        PRES    WAVE   SWELL
                          AIR SEA DIR/SP/G            HT/PER HT/PER
                          (F)     (DEG/KT/KT) (MB)    (FT/S) (FT/S)
SHELL POINT                75     340/  6/  8   N/A
KEATON BEACH               75      80/  8/  9 1020.9F
CEDAR KEY                  78      90/ 17/ 19 1021.0R
FERNANDINA                 76 81   90/  3/  5 1021.2R
30.7N   81.3W                 80                N/A     3/ 8
MAYPORT                    77 80   70/  6/  8 1021.8R
31.4N   80.9W              77 78   80/  6/  8 1022.5R   3/ 8   2/ 8
ST AUGUSTINE               77 80   80/ 10/ 11 1022.2R

$$
FLZ040-043>046-052-053-057-058-063-144-290500-
INTERIOR CENTRAL FLORIDA

CITY           SKY/WX    TMP DP  RH WIND       PRES   REMARKS
OCALA          CLEAR     72  61  68 E3        30.16S
THE VILLAGES     N/A     72  64  78 NE6       30.06S
LEESBURG       CLEAR     72  62  71 NE5       30.16R
SANFORD        PTCLDY    71  62  73 NE7       30.14S
ORLANDO EXEC   CLEAR     73  63  70 NE3       30.14R
ORLANDO INTL   PTCLDY    73  63  70 E5        30.14S
WINTER HAVEN   CLEAR     73  63  70 NE8       30.14S
LAKELAND       CLEAR     72  63  73 E8        30.13S
BARTOW         FAIR      72  63  73 NE5       30.14S
OKEECHOBEE     CLEAR     64  61  88 N3        30.11F

$$
FLZ041-047-054-059-064-141-147-290500-
EAST CENTRAL FLORIDA

CITY           SKY/WX    TMP DP  RH WIND       PRES   REMARKS
DAYTONA BEACH  PTCLDY    73  62  68 NE7       30.15S
DELAND           N/A     66  63  88 CALM      30.16S
JFK SPACE CTR  PTCLDY    73  62  67 E3        30.12F
CAPE CANAVERAL PTCLDY    75  63  65 E8        30.12S
PATRICK AFB    PTCLDY    77  63  61 NE10      30.12S
MELBOURNE      PTCLDY    76  61  59 E12       30.12S
VERO BEACH     CLEAR     77  59  53 E10       30.11F
FT PIERCE      PTCLDY    76  61  59 E8        30.10F
STUART         CLEAR     73  61  64 E10       30.11F

STATION/POSITION SKY/WX   TEMP    WIND        PRES    WAVE   SWELL
                          AIR SEA DIR/SP/G            HT/PER HT/PER
                          (F)     (DEG/KT/KT) (MB)    (FT/S) (FT/S)
28.5N   80.2W              78 80   80/ 14/ 17 1020.4S
28.9N   78.5W              77 81   60/ 12/ 14 1020.8R
TRIDENT PIER               76 82   60/  9/ 11 1020.7R
28.4N   80.5W                 82                N/A     3/ 5
27.5N   80.2W                 81                N/A     4/ 8

$$
FLZ050-056-061-142-242-148-248-149-249-151-251-155-255-
160-260-290500-
WEST CENTRAL FLORIDA

CITY           SKY/WX    TMP DP  RH WIND       PRES   REMARKS
CRYSTAL RIVER  FAIR      72  63  73 E5        30.14S
INVERNESS      FAIR      72  64  78 NE5       30.15S
BROOKSVILLE    CLEAR     71  63  75 E5        30.14S
CLEARWATER     CLEAR     77  59  53 E13       30.12R
TAMPA INTL     CLEAR     77  59  53 E7        30.12S
TAMPA EXEC     CLEAR     72  63  73 E3        30.13S
PLANT CITY     CLEAR     75  64  69 E5        30.14S
MACDILL AFB    CLEAR     76  62  62 E12       30.11R
PETER O KNIGHT CLEAR     77  61  57 E8        30.12S
ST PETERSBURG  CLEAR     79  63  57 E20       30.11R
SARASOTA       CLEAR     73  62  68 E9        30.10R
VENICE         FAIR      73  63  68 E8        30.11R

STATION/POSITION SKY/WX   TEMP    WIND        PRES    WAVE   SWELL
                          AIR SEA DIR/SP/G            HT/PER HT/PER
                          (F)     (DEG/KT/KT) (MB)    (FT/S) (FT/S)
CEDAR KEY                  78      90/ 17/ 19 1021.0R
28.5N   84.5W              80 81  360/ 10/ 12 1019.6R   2/ 5   2/ 5
27.3N   84.2W                 81                N/A     2/ 6
CLEARWATER BEACH           80 84   80/  8/ 16 1019.7R
MIDDLE TAMPA BAY           78     100/ 16/ 20 1019.4R
VENICE                     75 84   70/  7/  9 1019.1R

$$
FLZ066-069-070-075>078-162-262-165-265-290500-
SOUTHWEST FLORIDA AND KEYS

CITY           SKY/WX    TMP DP  RH WIND       PRES   REMARKS
PUNTA GORDA    CLEAR     71  62  73 E7        30.12R
FT MYERS       CLEAR     74  61  63 E6        30.09R
SOUTHWEST INTL CLEAR     73  60  63 E8        30.10R HAZE
NAPLES         CLEAR     75  67  76 E8        30.08S
MARCO ISLAND     N/A     73  64  73 NE7       30.08S
IMMOKALEE      CLEAR    N/A N/A N/A CALM      30.10S
MARATHON       PTCLDY    80  66  62 E12       30.06R
KEY WEST NAS   PTCLDY    79  66  64 E10G21    30.05S
KEY WEST INTL  PTCLDY    79  66  64 E10       30.05S

STATION/POSITION SKY/WX   TEMP    WIND        PRES    WAVE   SWELL
                          AIR SEA DIR/SP/G            HT/PER HT/PER
                          (F)     (DEG/KT/KT) (MB)    (FT/S) (FT/S)
VENICE                     75 84   70/  7/  9 1019.1R
NAPLES                     77 83   70/  5/ 10 1018.5R
26.0N   85.6W              80 82   80/ 10/ 14 1018.2R   3/ 6   2/ 6
DRY TORTUGAS               81      90/ 17/ 20 1017.4R
NW FL BAY                  80      80/ 14/ 17 1018.1
SAND KEY                   80      90/ 19/ 21 1017.4R
SOMBRERO KEY               80      80/ 20/ 21 1017.8F
LONG KEY                   80 81   80/ 16/ 18 1018.7R
MOLASSES REEF              79 81   90/ 15/ 16 1018.0S

$$
FLZ067-068-071>074-168-172>174-290500-
SOUTHEAST FLORIDA

CITY           SKY/WX    TMP DP  RH WIND       PRES   REMARKS
W PALM BEACH   PTCLDY    78  61  55 E12       30.10F
FT LAUDER-EXEC PTCLDY    78  63  59 E13       30.08S
FT LAUDERDALE  PTCLDY    78  64  61 E12G17    30.08S
POMPANO BEACH  PTCLDY    78  62  57 NE12      30.08F
PEMBROKE PINES MOCLDY    77  63  61 E10       30.09S
OPA LOCKA      PTCLDY    76  64  66 E7        30.08S
MIAMI          MOCLDY    79  62  56 E12       30.08S
WEST KENDALL   PTCLDY    77  64  64 E12       30.08S
HOMESTEAD      PTCLDY    78  64  62 NE9G18    30.07S

STATION/POSITION SKY/WX   TEMP    WIND        PRES    WAVE   SWELL
                          AIR SEA DIR/SP/G            HT/PER HT/PER
                          (F)     (DEG/KT/KT) (MB)    (FT/S) (FT/S)
PORT EVERGLADES            79      60/ 13/ 16 1018.5F
VIRGINIA KEY               79 83   70/ 14/ 17 1018.1R
LAKE WORTH                 78 82   70/ 14/ 17 1018.9R
SETTLEMENT POINT           78      80/ 13/ 16 1019.6F

$$



USA.gov is the U.S. government's official web portal to all federal, state and local government web resources and services.